| time (UTC) | temp F | wind direction | speed MPH | gust MPH | rain 1hr in | rain 24hr in | rain mn in | humidity % | barometer mb |
| 20260906064205 | 49 | 250 | 2.0 | 5.0 | 0.00 | 0.00 | 0.00 | 89 | 1027.7 |
| 20260906063705 | 49 | 236 | 3.0 | 5.0 | 0.00 | 0.00 | 0.00 | 89 | 1027.7 |
| 20260906063205 | 49 | 240 | 3.0 | 5.0 | 0.00 | 0.00 | 0.00 | 89 | 1027.7 |
| 20260906062206 | 47 | 257 | 2.0 | 3.0 | 0.00 | 0.00 | 0.00 | 89 | 1027.5 |
| 20260906061705 | 47 | 205 | 2.0 | 2.0 | 0.00 | 0.00 | 0.00 | 88 | 1027.4 |
| 20260906060705 | 47 | 1 | 1.0 | 3.0 | 0.00 | 0.00 | 0.00 | 87 | 1027.3 |
| 20260906060205 | 47 | 314 | 1.0 | 3.0 | 0.00 | 0.00 | 0.00 | 87 | 1027.1 |
| 20260906055705 | 47 | 15 | 2.0 | 3.0 | 0.00 | 0.00 | 0.00 | 87 | 1027.0 |
| 20260906055205 | 47 | 63 | 2.0 | 3.0 | 0.00 | 0.00 | 0.00 | 87 | 1027.0 |
| 20260906054705 | 46 | 21 | 1.0 | 3.0 | 0.00 | 0.00 | 0.00 | 87 | 1027.1 |
| 20260906054205 | 46 | 35 | 1.0 | 3.0 | 0.00 | 0.00 | 0.00 | 86 | 1027.1 |
| 20260906053706 | 46 | 72 | 1.0 | 3.0 | 0.00 | 0.00 | 0.00 | 86 | 1027.1 |
| 20260906053205 | 46 | 108 | 1.0 | 3.0 | 0.00 | 0.00 | 0.00 | 86 | 1027.1 |
| 20260906052707 | 46 | 79 | 1.0 | 2.0 | 0.00 | 0.00 | 0.00 | 86 | 1027.1 |
| 20260906051705 | 47 | 178 | 0.0 | 2.0 | 0.00 | 0.00 | 0.00 | 86 | 1027.2 |
| 20260906051206 | 47 | 269 | 0.0 | 2.0 | 0.00 | 0.00 | 0.00 | 86 | 1027.1 |
| 20260906050705 | 47 | 20 | 1.0 | 2.0 | 0.00 | 0.00 | 0.00 | 86 | 1027.2 |
| 20260906050206 | 47 | 35 | 1.0 | 2.0 | 0.00 | 0.00 | 0.00 | 85 | 1027.1 |
| 20260906045705 | 47 | 46 | 0.0 | 1.0 | 0.00 | 0.00 | 0.00 | 85 | 1027.1 |
| 20260906045205 | 47 | 124 | 0.0 | 2.0 | 0.00 | 0.00 | 0.00 | 85 | 1027.1 |
| 20260906044205 | 47 | 46 | 1.0 | 2.0 | 0.00 | 0.00 | 0.00 | 85 | 1027.1 |
| 20260906043205 | 47 | 1 | 0.0 | 1.0 | 0.00 | 0.00 | 0.00 | 85 | 1027.2 |
| 20260906042705 | 47 | 46 | 0.0 | 4.0 | 0.00 | 0.00 | 0.00 | 85 | 1027.1 |
| 20260906042205 | 47 | 46 | 1.0 | 4.0 | 0.00 | 0.00 | 0.00 | 84 | 1026.9 |
| 20260906041705 | 47 | 205 | 2.0 | 4.0 | 0.00 | 0.00 | 0.00 | 84 | 1026.9 |
| 20260906041233 | 47 | 72 | 3.0 | 4.0 | 0.00 | 0.00 | 0.00 | 84 | 1026.8 |
| 20260906040705 | 48 | 51 | 2.0 | 3.0 | 0.00 | 0.00 | 0.00 | 84 | 1026.9 |
| 20260906040205 | 48 | 58 | 1.0 | 3.0 | 0.00 | 0.00 | 0.00 | 84 | 1027.0 |
| 20260906035705 | 48 | 89 | 2.0 | 3.0 | 0.00 | 0.00 | 0.00 | 84 | 1027.0 |
| 20260906035206 | 48 | 81 | 2.0 | 3.0 | 0.00 | 0.00 | 0.00 | 84 | 1027.0 |
| 20260906034706 | 48 | 68 | 2.0 | 3.0 | 0.00 | 0.00 | 0.00 | 84 | 1027.0 |
| 20260906033706 | 48 | 89 | 1.0 | 2.0 | 0.00 | 0.00 | 0.00 | 83 | 1027.0 |
| 20260906033205 | 48 | 89 | 1.0 | 2.0 | 0.00 | 0.00 | 0.00 | 83 | 1027.0 |
| 20260906032206 | 49 | 99 | 1.0 | 2.0 | 0.00 | 0.00 | 0.00 | 83 | 1026.8 |
| 20260906031705 | 49 | 32 | 0.0 | 3.0 | 0.00 | 0.00 | 0.00 | 83 | 1026.8 |
| 20260906031208 | 49 | 89 | 1.0 | 3.0 | 0.00 | 0.00 | 0.00 | 83 | 1026.7 |
| 20260906030705 | 49 | 178 | 1.0 | 3.0 | 0.00 | 0.00 | 0.00 | 83 | 1026.4 |
| 20260906030205 | 49 | 35 | 0.0 | 3.0 | 0.00 | 0.00 | 0.00 | 83 | 1026.4 |
| 20260906025705 | 49 | 178 | 1.0 | 3.0 | 0.00 | 0.00 | 0.00 | 83 | 1026.7 |
| 20260906025206 | 49 | 46 | 1.0 | 3.0 | 0.00 | 0.00 | 0.00 | 82 | 1026.5 |
| 20260906024705 | 49 | 1 | 0.0 | 2.0 | 0.00 | 0.00 | 0.00 | 82 | 1026.5 |
| 20260906024205 | 49 | 240 | 0.0 | 2.0 | 0.00 | 0.00 | 0.00 | 82 | 1026.6 |
| 20260906023205 | 50 | 269 | 1.0 | 2.0 | 0.00 | 0.00 | 0.00 | 82 | 1026.5 |
| 20260906022225 | 50 | 46 | 1.0 | 2.0 | 0.00 | 0.00 | 0.00 | 82 | 1026.4 |
| 20260906021705 | 50 | 344 | 1.0 | 2.0 | 0.00 | 0.00 | 0.00 | 81 | 1026.3 |
| 20260906021228 | 50 | 72 | 0.0 | 2.0 | 0.00 | 0.00 | 0.00 | 81 | 1026.4 |
| 20260906020705 | 50 | 205 | 1.0 | 2.0 | 0.00 | 0.00 | 0.00 | 81 | 1026.4 |
| 20260906020205 | 50 | 89 | 1.0 | 2.0 | 0.00 | 0.00 | 0.00 | 81 | 1026.3 |
| 20260906015206 | 50 | 46 | 1.0 | 2.0 | 0.00 | 0.00 | 0.00 | 81 | 1026.3 |
| 20260906013706 | 51 | 89 | 1.0 | 2.0 | 0.00 | 0.00 | 0.00 | 80 | 1026.2 |
| 20260906013205 | 51 | 58 | 0.0 | 1.0 | 0.00 | 0.00 | 0.00 | 80 | 1026.3 |
| 20260906012206 | 51 | 46 | 0.0 | 2.0 | 0.00 | 0.00 | 0.00 | 80 | 1026.3 |
| 20260906011705 | 51 | 314 | 0.0 | 2.0 | 0.00 | 0.00 | 0.00 | 80 | 1026.3 |
| 20260906011205 | 51 | 178 | 1.0 | 2.0 | 0.00 | 0.00 | 0.00 | 79 | 1026.3 |
| 20260906010721 | 51 | 63 | 1.0 | 2.0 | 0.00 | 0.00 | 0.00 | 79 | 1026.3 |
| 20260906010224 | 52 | 40 | 1.0 | 3.0 | 0.00 | 0.00 | 0.00 | 79 | 1026.2 |
| 20260906005705 | 52 | 72 | 1.0 | 3.0 | 0.00 | 0.00 | 0.00 | 79 | 1026.1 |
| 20260906005205 | 52 | 89 | 2.0 | 3.0 | 0.00 | 0.00 | 0.00 | 79 | 1026.2 |
| 20260906004705 | 52 | 89 | 2.0 | 3.0 | 0.00 | 0.00 | 0.00 | 79 | 1026.1 |
| 20260906004206 | 52 | 51 | 1.0 | 1.0 | 0.00 | 0.00 | 0.00 | 78 | 1026.1 |
| 20260906003705 | 52 | 108 | 0.0 | 1.0 | 0.00 | 0.00 | 0.00 | 78 | 1026.0 |
| 20260906003204 | 52 | 46 | 0.0 | 3.0 | 0.00 | 0.00 | 0.00 | 78 | 1026.0 |
| 20260906002705 | 53 | 46 | 0.0 | 3.0 | 0.00 | 0.00 | 0.00 | 78 | 1026.0 |
| 20260906002207 | 53 | 135 | 2.0 | 3.0 | 0.00 | 0.00 | 0.00 | 78 | 1026.0 |
| 20260906001705 | 53 | 46 | 2.0 | 3.0 | 0.00 | 0.00 | 0.00 | 77 | 1026.0 |
| 20260906000705 | 53 | 104 | 1.0 | 3.0 | 0.00 | 0.00 | 0.00 | 77 | 1026.1 |
| 20260906000205 | 53 | 104 | 2.0 | 3.0 | 0.00 | 0.00 | 0.00 | 77 | 1026.1 |
| 20260905235705 | 53 | 20 | 2.0 | 2.0 | 0.00 | 0.00 | 0.00 | 77 | 1026.1 |
| 20260905235205 | 53 | 11 | 1.0 | 2.0 | 0.00 | 0.00 | 0.00 | 76 | 1026.1 |
| 20260905234705 | 53 | 72 | 1.0 | 2.0 | 0.00 | 0.00 | 0.00 | 76 | 1026.1 |
| 20260905233705 | 54 | 53 | 1.0 | 2.0 | 0.00 | 0.00 | 0.00 | 75 | 1026.1 |
| 20260905232206 | 54 | 108 | 1.0 | 2.0 | 0.00 | 0.00 | 0.00 | 74 | 1026.0 |
| 20260905231705 | 54 | 46 | 1.0 | 2.0 | 0.00 | 0.00 | 0.00 | 73 | 1026.1 |
| 20260905231224 | 54 | 63 | 0.0 | 2.0 | 0.00 | 0.00 | 0.00 | 73 | 1026.0 |
| 20260905225705 | 55 | 250 | 1.0 | 1.0 | 0.00 | 0.00 | 0.00 | 72 | 1025.8 |
| 20260905224705 | 55 | 269 | 0.0 | 1.0 | 0.00 | 0.00 | 0.00 | 71 | 1025.8 |
| 20260905224207 | 55 | 46 | 0.0 | 2.0 | 0.00 | 0.00 | 0.00 | 71 | 1025.8 |
| 20260905223705 | 56 | 89 | 0.0 | 3.0 | 0.00 | 0.00 | 0.00 | 71 | 1025.8 |
| 20260905222706 | 56 | 46 | 2.0 | 3.0 | 0.00 | 0.00 | 0.00 | 70 | 1025.6 |
| 20260905222205 | 56 | 46 | 1.0 | 2.0 | 0.00 | 0.00 | 0.00 | 70 | 1025.6 |
| 20260905221705 | 56 | 1 | 1.0 | 2.0 | 0.00 | 0.00 | 0.00 | 69 | 1025.5 |
| 20260905221206 | 56 | 56 | 0.0 | 1.0 | 0.00 | 0.00 | 0.00 | 69 | 1025.4 |
| 20260905220705 | 57 | 20 | 0.0 | 2.0 | 0.00 | 0.00 | 0.00 | 69 | 1025.4 |
| 20260905220205 | 57 | 46 | 0.0 | 2.0 | 0.00 | 0.00 | 0.00 | 69 | 1025.3 |
| 20260905215705 | 57 | 89 | 1.0 | 3.0 | 0.00 | 0.00 | 0.00 | 69 | 1025.3 |
| 20260905215206 | 57 | 63 | 1.0 | 3.0 | 0.00 | 0.00 | 0.00 | 68 | 1025.3 |
| 20260905214704 | 57 | 63 | 2.0 | 3.0 | 0.00 | 0.00 | 0.00 | 68 | 1025.2 |
| 20260905214206 | 57 | 72 | 1.0 | 3.0 | 0.00 | 0.00 | 0.00 | 67 | 1025.2 |
| 20260905213705 | 58 | 63 | 1.0 | 3.0 | 0.00 | 0.00 | 0.00 | 67 | 1025.2 |
| 20260905213205 | 58 | 89 | 1.0 | 3.0 | 0.00 | 0.00 | 0.00 | 67 | 1024.9 |
| 20260905212705 | 58 | 102 | 1.0 | 2.0 | 0.00 | 0.00 | 0.00 | 66 | 1025.1 |
| 20260905212206 | 58 | 28 | 1.0 | 3.0 | 0.00 | 0.00 | 0.00 | 66 | 1025.1 |
| 20260905211704 | 58 | 104 | 1.0 | 3.0 | 0.00 | 0.00 | 0.00 | 65 | 1024.9 |
| 20260905211206 | 59 | 46 | 1.0 | 3.0 | 0.00 | 0.00 | 0.00 | 65 | 1024.9 |
| 20260905210705 | 59 | 35 | 1.0 | 3.0 | 0.00 | 0.00 | 0.00 | 65 | 1024.8 |
| 20260905210205 | 59 | 46 | 1.0 | 3.0 | 0.00 | 0.00 | 0.00 | 64 | 1024.9 |
| 20260905205706 | 59 | 331 | 1.0 | 3.0 | 0.00 | 0.00 | 0.00 | 64 | 1024.8 |
| 20260905204705 | 60 | 349 | 1.0 | 4.0 | 0.00 | 0.00 | 0.00 | 63 | 1024.8 |
| 20260905204207 | 60 | 89 | 1.0 | 5.0 | 0.00 | 0.00 | 0.00 | 62 | 1024.8 |
| 20260905203705 | 60 | 314 | 2.0 | 5.0 | 0.00 | 0.00 | 0.00 | 62 | 1024.8 |
| 20260905203205 | 60 | 1 | 1.0 | 5.0 | 0.00 | 0.00 | 0.00 | 61 | 1024.7 |
| 20260905202206 | 61 | 160 | 1.0 | 4.0 | 0.00 | 0.00 | 0.00 | 60 | 1024.7 |
| 20260905201205 | 62 | 302 | 1.0 | 4.0 | 0.00 | 0.00 | 0.00 | 60 | 1024.7 |
| 20260905200705 | 62 | 308 | 1.0 | 4.0 | 0.00 | 0.00 | 0.00 | 59 | 1024.6 |
| 20260905200206 | 62 | 314 | 1.0 | 4.0 | 0.00 | 0.00 | 0.00 | 59 | 1024.5 |
| 20260905195705 | 62 | 353 | 1.0 | 3.0 | 0.00 | 0.00 | 0.00 | 58 | 1024.5 |
| 20260905195206 | 63 | 314 | 1.0 | 3.0 | 0.00 | 0.00 | 0.00 | 57 | 1024.4 |
| 20260905194705 | 63 | 328 | 2.0 | 3.0 | 0.00 | 0.00 | 0.00 | 57 | 1024.4 |
| 20260905194205 | 63 | 309 | 2.0 | 4.0 | 0.00 | 0.00 | 0.00 | 57 | 1024.3 |
| 20260905193206 | 64 | 314 | 2.0 | 5.0 | 0.00 | 0.00 | 0.00 | 56 | 1024.3 |
| 20260905192706 | 64 | 341 | 3.0 | 5.0 | 0.00 | 0.00 | 0.00 | 55 | 1024.3 |
| 20260905192205 | 64 | 333 | 3.0 | 4.0 | 0.00 | 0.00 | 0.00 | 55 | 1024.3 |
| 20260905191705 | 64 | 340 | 2.0 | 5.0 | 0.00 | 0.00 | 0.00 | 55 | 1024.3 |
| 20260905190705 | 65 | 318 | 2.0 | 5.0 | 0.00 | 0.00 | 0.00 | 54 | 1024.2 |
| 20260905190205 | 65 | 309 | 2.0 | 5.0 | 0.00 | 0.00 | 0.00 | 53 | 1024.1 |
| 20260905185705 | 66 | 15 | 2.0 | 5.0 | 0.00 | 0.00 | 0.00 | 53 | 1024.0 |
| 20260905185206 | 66 | 320 | 2.0 | 4.0 | 0.00 | 0.00 | 0.00 | 52 | 1024.1 |
| 20260905184705 | 66 | 302 | 2.0 | 4.0 | 0.00 | 0.00 | 0.00 | 52 | 1023.9 |
| 20260905184206 | 67 | 347 | 2.0 | 4.0 | 0.00 | 0.00 | 0.00 | 51 | 1023.9 |
| 20260905183705 | 67 | 328 | 2.0 | 4.0 | 0.00 | 0.00 | 0.00 | 51 | 1023.8 |
| 20260905183205 | 67 | 318 | 2.0 | 4.0 | 0.00 | 0.00 | 0.00 | 50 | 1023.7 |
| 20260905182705 | 67 | 351 | 2.0 | 5.0 | 0.00 | 0.00 | 0.00 | 50 | 1023.7 |
| 20260905181705 | 68 | 1 | 2.0 | 7.0 | 0.00 | 0.00 | 0.00 | 50 | 1023.5 |
| 20260905181205 | 68 | 354 | 3.0 | 7.0 | 0.00 | 0.00 | 0.00 | 49 | 1023.4 |
| 20260905180705 | 69 | 89 | 2.0 | 6.0 | 0.00 | 0.00 | 0.00 | 49 | 1023.3 |
| 20260905180206 | 69 | 23 | 2.0 | 8.0 | 0.00 | 0.00 | 0.00 | 48 | 1023.1 |
| 20260905175705 | 69 | 9 | 3.0 | 8.0 | 0.00 | 0.00 | 0.00 | 48 | 1023.1 |
| 20260905174705 | 69 | 307 | 3.0 | 9.0 | 0.00 | 0.00 | 0.00 | 47 | 1023.0 |
| 20260905173705 | 69 | 317 | 4.0 | 11.0 | 0.00 | 0.00 | 0.00 | 47 | 1023.0 |
| 20260905173205 | 69 | 347 | 4.0 | 11.0 | 0.00 | 0.00 | 0.00 | 47 | 1022.9 |
| 20260905172705 | 70 | 346 | 5.0 | 11.0 | 0.00 | 0.00 | 0.00 | 47 | 1022.9 |
| 20260905172205 | 70 | 28 | 4.0 | 11.0 | 0.00 | 0.00 | 0.00 | 47 | 1022.7 |
| 20260905171705 | 70 | 1 | 5.0 | 11.0 | 0.00 | 0.00 | 0.00 | 46 | 1022.7 |
| 20260905171207 | 70 | 246 | 5.0 | 12.0 | 0.00 | 0.00 | 0.00 | 46 | 1022.7 |
| 20260905170705 | 71 | 252 | 5.0 | 12.0 | 0.00 | 0.00 | 0.00 | 45 | 1022.6 |
| 20260905170232 | 71 | 311 | 5.0 | 12.0 | 0.00 | 0.00 | 0.00 | 45 | 1022.6 |
| 20260905165705 | 71 | 290 | 5.0 | 16.0 | 0.00 | 0.00 | 0.00 | 44 | 1022.6 |
| 20260905165205 | 71 | 349 | 6.0 | 16.0 | 0.00 | 0.00 | 0.00 | 45 | 1022.5 |
| 20260905164224 | 72 | 346 | 5.0 | 13.0 | 0.00 | 0.00 | 0.00 | 43 | 1022.4 |
| 20260905162709 | 73 | 302 | 6.0 | 12.0 | 0.00 | 0.00 | 0.00 | 41 | 1022.1 |
| 20260905161705 | 73 | 272 | 7.0 | 15.0 | 0.00 | 0.00 | 0.00 | 40 | 1022.0 |
| 20260905161205 | 73 | 307 | 7.0 | 16.0 | 0.00 | 0.00 | 0.00 | 39 | 1022.1 |
| 20260905160706 | 74 | 243 | 7.0 | 16.0 | 0.00 | 0.00 | 0.00 | 37 | 1022.0 |
| 20260905160205 | 74 | 222 | 7.0 | 16.0 | 0.00 | 0.00 | 0.00 | 38 | 1022.0 |
| 20260905155705 | 74 | 264 | 8.0 | 19.0 | 0.00 | 0.00 | 0.00 | 39 | 1021.9 |
| 20260905154705 | 74 | 250 | 8.0 | 19.0 | 0.00 | 0.00 | 0.00 | 39 | 1021.8 |
| 20260905154205 | 74 | 269 | 8.0 | 19.0 | 0.00 | 0.00 | 0.00 | 39 | 1021.9 |
| 20260905153705 | 74 | 265 | 8.0 | 18.0 | 0.00 | 0.00 | 0.00 | 38 | 1021.9 |
| 20260905153205 | 73 | 262 | 9.0 | 18.0 | 0.00 | 0.00 | 0.00 | 38 | 1021.8 |
| 20260905152205 | 74 | 257 | 8.0 | 17.0 | 0.00 | 0.00 | 0.00 | 38 | 1021.7 |
| 20260905151704 | 74 | 257 | 7.0 | 17.0 | 0.00 | 0.00 | 0.00 | 38 | 1021.7 |
| 20260905151206 | 75 | 259 | 7.0 | 14.0 | 0.00 | 0.00 | 0.00 | 38 | 1021.6 |
| 20260905150205 | 75 | 269 | 7.0 | 17.0 | 0.00 | 0.00 | 0.00 | 38 | 1021.6 |
| 20260905145706 | 74 | 245 | 8.0 | 17.0 | 0.00 | 0.00 | 0.00 | 38 | 1021.6 |
| 20260905145206 | 74 | 306 | 9.0 | 25.0 | 0.00 | 0.00 | 0.00 | 38 | 1021.7 |
| 20260905144706 | 74 | 252 | 10.0 | 25.0 | 0.00 | 0.00 | 0.00 | 39 | 1021.7 |
| 20260905144205 | 74 | 243 | 11.0 | 25.0 | 0.00 | 0.00 | 0.00 | 38 | 1021.5 |
| 20260905143706 | 74 | 276 | 9.0 | 21.0 | 0.00 | 0.00 | 0.00 | 39 | 1021.5 |
| 20260905143205 | 74 | 255 | 10.0 | 19.0 | 0.00 | 0.00 | 0.00 | 38 | 1021.5 |
| 20260905142705 | 74 | 245 | 10.0 | 19.0 | 0.00 | 0.00 | 0.00 | 39 | 1021.4 |
| 20260905142205 | 74 | 222 | 10.0 | 19.0 | 0.00 | 0.00 | 0.00 | 38 | 1021.3 |
| 20260905141705 | 75 | 356 | 10.0 | 18.0 | 0.00 | 0.00 | 0.00 | 38 | 1021.3 |
| 20260905141205 | 74 | 283 | 10.0 | 18.0 | 0.00 | 0.00 | 0.00 | 40 | 1021.3 |
| 20260905140705 | 75 | 290 | 10.0 | 21.0 | 0.00 | 0.00 | 0.00 | 40 | 1021.4 |
| 20260905140205 | 74 | 271 | 12.0 | 21.0 | 0.00 | 0.00 | 0.00 | 41 | 1021.5 |
| 20260905135705 | 74 | 243 | 12.0 | 21.0 | 0.00 | 0.00 | 0.00 | 41 | 1021.5 |
| 20260905134705 | 75 | 258 | 8.0 | 16.0 | 0.00 | 0.00 | 0.00 | 41 | 1021.5 |
| 20260905134205 | 74 | 281 | 9.0 | 18.0 | 0.00 | 0.00 | 0.00 | 43 | 1021.5 |
| 20260905133728 | 74 | 224 | 8.0 | 19.0 | 0.00 | 0.00 | 0.00 | 41 | 1021.4 |
| 20260905133226 | 74 | 269 | 10.0 | 19.0 | 0.00 | 0.00 | 0.00 | 41 | 1021.3 |
| 20260905131720 | 73 | 255 | 11.0 | 24.0 | 0.00 | 0.00 | 0.00 | 42 | 1021.4 |
| 20260905131205 | 73 | 250 | 9.0 | 19.0 | 0.00 | 0.00 | 0.00 | 42 | 1021.4 |
| 20260905130705 | 71 | 296 | 9.0 | 20.0 | 0.00 | 0.00 | 0.00 | 45 | 1021.5 |
| 20260905130206 | 71 | 290 | 10.0 | 20.0 | 0.00 | 0.00 | 0.00 | 44 | 1021.3 |
| 20260905125705 | 73 | 262 | 9.0 | 19.0 | 0.00 | 0.00 | 0.00 | 42 | 1021.4 |
| 20260905124705 | 72 | 300 | 8.0 | 18.0 | 0.00 | 0.00 | 0.00 | 45 | 1021.4 |
| 20260905124205 | 73 | 245 | 9.0 | 18.0 | 0.00 | 0.00 | 0.00 | 44 | 1021.5 |
| 20260905123705 | 73 | 240 | 9.0 | 17.0 | 0.00 | 0.00 | 0.00 | 44 | 1021.4 |
| 20260905123205 | 74 | 278 | 8.0 | 17.0 | 0.00 | 0.00 | 0.00 | 44 | 1021.5 |
| 20260905122705 | 73 | 253 | 7.0 | 17.0 | 0.00 | 0.00 | 0.00 | 46 | 1021.5 |
| 20260905122205 | 73 | 290 | 8.0 | 17.0 | 0.00 | 0.00 | 0.00 | 47 | 1021.4 |
| 20260905121705 | 72 | 245 | 8.0 | 17.0 | 0.00 | 0.00 | 0.00 | 48 | 1021.5 |
| 20260905121206 | 73 | 248 | 8.0 | 19.0 | 0.00 | 0.00 | 0.00 | 48 | 1021.4 |
| 20260905120705 | 73 | 295 | 8.0 | 19.0 | 0.00 | 0.00 | 0.00 | 49 | 1021.3 |
| 20260905115705 | 73 | 276 | 11.0 | 19.0 | 0.00 | 0.00 | 0.00 | 47 | 1021.5 |
| 20260905115205 | 72 | 210 | 11.0 | 18.0 | 0.00 | 0.00 | 0.00 | 47 | 1021.3 |
| 20260905114705 | 72 | 260 | 9.0 | 17.0 | 0.00 | 0.00 | 0.00 | 47 | 1021.3 |
| 20260905114206 | 71 | 283 | 8.0 | 17.0 | 0.00 | 0.00 | 0.00 | 46 | 1021.3 |
| 20260905113705 | 71 | 264 | 7.0 | 16.0 | 0.00 | 0.00 | 0.00 | 51 | 1021.4 |
| 20260905113206 | 70 | 321 | 8.0 | 16.0 | 0.00 | 0.00 | 0.00 | 54 | 1021.3 |
| 20260905112206 | 70 | 279 | 7.0 | 15.0 | 0.00 | 0.00 | 0.00 | 53 | 1021.4 |
| 20260905111205 | 70 | 259 | 10.0 | 21.0 | 0.00 | 0.00 | 0.00 | 54 | 1021.3 |
| 20260905110705 | 70 | 210 | 11.0 | 21.0 | 0.00 | 0.00 | 0.00 | 52 | 1021.3 |
| 20260905110205 | 71 | 248 | 10.0 | 21.0 | 0.00 | 0.00 | 0.00 | 52 | 1021.4 |
| 20260905105705 | 70 | 248 | 8.0 | 16.0 | 0.00 | 0.00 | 0.00 | 52 | 1021.4 |
| 20260905105206 | 69 | 262 | 7.0 | 16.0 | 0.00 | 0.00 | 0.00 | 55 | 1021.4 |
| 20260905104705 | 69 | 255 | 8.0 | 17.0 | 0.00 | 0.00 | 0.00 | 53 | 1021.4 |
| 20260905104206 | 69 | 286 | 10.0 | 18.0 | 0.00 | 0.00 | 0.00 | 56 | 1021.3 |
| 20260905103205 | 70 | 250 | 9.0 | 18.0 | 0.00 | 0.00 | 0.00 | 55 | 1021.4 |
| 20260905102205 | 69 | 240 | 9.0 | 15.0 | 0.00 | 0.00 | 0.00 | 56 | 1021.4 |
| 20260905101706 | 69 | 274 | 8.0 | 15.0 | 0.00 | 0.00 | 0.00 | 57 | 1021.4 |
| 20260905101205 | 68 | 255 | 7.0 | 16.0 | 0.00 | 0.00 | 0.00 | 59 | 1021.4 |
| 20260905100705 | 67 | 245 | 8.0 | 16.0 | 0.00 | 0.00 | 0.00 | 59 | 1021.4 |
| 20260905100205 | 68 | 271 | 9.0 | 16.0 | 0.00 | 0.00 | 0.00 | 58 | 1021.5 |
| 20260905095705 | 68 | 238 | 8.0 | 14.0 | 0.00 | 0.00 | 0.00 | 59 | 1021.4 |
| 20260905095206 | 68 | 285 | 8.0 | 15.0 | 0.00 | 0.00 | 0.00 | 60 | 1021.3 |
| 20260905094706 | 69 | 236 | 9.0 | 15.0 | 0.00 | 0.00 | 0.00 | 59 | 1021.3 |
| 20260905094206 | 69 | 229 | 9.0 | 16.0 | 0.00 | 0.00 | 0.00 | 60 | 1021.4 |
| 20260905093705 | 69 | 233 | 10.0 | 16.0 | 0.00 | 0.00 | 0.00 | 59 | 1021.5 |
| 20260905093205 | 69 | 255 | 8.0 | 18.0 | 0.00 | 0.00 | 0.00 | 59 | 1021.3 |
| 20260905092705 | 68 | 316 | 9.0 | 18.0 | 0.00 | 0.00 | 0.00 | 62 | 1021.3 |
| 20260905092206 | 68 | 265 | 9.0 | 18.0 | 0.00 | 0.00 | 0.00 | 61 | 1021.3 |
| 20260905091706 | 68 | 276 | 9.0 | 18.0 | 0.00 | 0.00 | 0.00 | 63 | 1021.4 |
| 20260905091205 | 67 | 238 | 9.0 | 18.0 | 0.00 | 0.00 | 0.00 | 63 | 1021.3 |
| 20260905090705 | 67 | 222 | 8.0 | 15.0 | 0.00 | 0.00 | 0.00 | 63 | 1021.2 |
| 20260905085705 | 67 | 276 | 6.0 | 14.0 | 0.00 | 0.00 | 0.00 | 65 | 1020.9 |
| 20260905085206 | 67 | 271 | 6.0 | 14.0 | 0.00 | 0.00 | 0.00 | 65 | 1020.8 |
| 20260905084205 | 67 | 324 | 6.0 | 16.0 | 0.00 | 0.00 | 0.00 | 66 | 1020.7 |
| 20260905083705 | 67 | 269 | 7.0 | 16.0 | 0.00 | 0.00 | 0.00 | 67 | 1020.7 |
| 20260905083205 | 67 | 300 | 7.0 | 16.0 | 0.00 | 0.00 | 0.00 | 68 | 1020.7 |
| 20260905082705 | 67 | 258 | 6.0 | 14.0 | 0.00 | 0.00 | 0.00 | 67 | 1020.6 |
| 20260905082206 | 66 | 269 | 7.0 | 14.0 | 0.00 | 0.00 | 0.00 | 70 | 1020.5 |
| 20260905081705 | 66 | 296 | 7.0 | 13.0 | 0.00 | 0.00 | 0.00 | 71 | 1020.6 |
| 20260905081205 | 65 | 234 | 6.0 | 13.0 | 0.00 | 0.00 | 0.00 | 73 | 1020.5 |
| 20260905080205 | 65 | 259 | 8.0 | 13.0 | 0.00 | 0.00 | 0.00 | 73 | 1020.6 |
| 20260905075707 | 65 | 252 | 8.0 | 13.0 | 0.00 | 0.00 | 0.00 | 75 | 1020.5 |
| 20260905075205 | 65 | 224 | 8.0 | 13.0 | 0.00 | 0.00 | 0.00 | 76 | 1020.5 |
| 20260905074705 | 65 | 203 | 7.0 | 13.0 | 0.00 | 0.00 | 0.00 | 76 | 1020.4 |
| 20260905074205 | 65 | 197 | 6.0 | 10.0 | 0.00 | 0.00 | 0.00 | 77 | 1020.4 |
| 20260905073205 | 64 | 248 | 6.0 | 13.0 | 0.00 | 0.00 | 0.00 | 79 | 1020.4 |
| 20260905072206 | 64 | 243 | 7.0 | 12.0 | 0.00 | 0.00 | 0.00 | 79 | 1020.4 |
| 20260905071706 | 63 | 221 | 6.0 | 12.0 | 0.00 | 0.00 | 0.00 | 79 | 1020.3 |
| 20260905071233 | 63 | 279 | 5.0 | 11.0 | 0.00 | 0.00 | 0.00 | 81 | 1020.2 |
| 20260905070705 | 62 | 269 | 6.0 | 10.0 | 0.00 | 0.00 | 0.00 | 82 | 1020.1 |
| 20260905070205 | 62 | 248 | 5.0 | 10.0 | 0.00 | 0.00 | 0.00 | 83 | 1020.0 |
| 20260905065206 | 62 | 243 | 5.0 | 10.0 | 0.00 | 0.00 | 0.00 | 84 | 1020.1 |
| 20260905064705 | 61 | 300 | 4.0 | 10.0 | 0.00 | 0.00 | 0.00 | 84 | 1020.2 |